Location: Anumalkud?ru
(16.4847°N, 80.6636°E)
Time: 08:32:06
(UTC+00:00)

Envisat - Visible Passes

Search period start: 12 June 2026 00:00
Search period end: 22 June 2026 00:00
Orbit: 761 x 763 km, 98.4° (Epoch: 11 June)

Date Brightness Start Highest point End Pass type
(mag) Time Alt. Az. Time Alt. Az. Time Alt. Az.
12 Jun 4.9 21:14:15 10° N 21:16:10 23° N 21:16:10 23° N visible
13 Jun 5.5 20:36:36 10° NNE 20:37:53 18° NNE 20:37:53 18° NNE visible
14 Jun 4.9 21:37:59 10° NNW 21:39:44 19° NNW 21:39:44 19° NNW visible
15 Jun 5.0 20:59:39 10° N 21:01:28 23° N 21:01:28 23° N visible
16 Jun 5.7 20:22:26 10° NE 20:23:11 14° NE 20:23:11 14° NE visible
16 Jun 5.2 22:02:25 10° NW 22:03:18 13° NW 22:03:18 13° NW visible
17 Jun 4.9 21:23:07 10° N 21:25:01 22° NNW 21:25:01 22° NNW visible
18 Jun 5.3 20:45:12 10° NNE 20:46:44 20° NNE 20:46:44 20° NNE visible
19 Jun 5.0 21:47:04 10° NNW 21:48:34 17° NW 21:48:34 17° NW visible
20 Jun 4.9 21:08:26 10° N 21:10:17 23° N 21:10:17 23° N visible
21 Jun 5.6 20:30:55 10° NNE 20:32:00 16° NE 20:32:00 16° NE visible
21 Jun 5.3 22:12:00 10° NW 22:12:07 10° NW 22:12:07 10° NW visible
